Kahului, HI

9:52 AM HST on December 18, 2017 (GMT -1000)
Kahului

Weather History for PHOG - January, 2013

Change the Weather History Date:

Sunday, January 13, 2013

  Actual Average Record
Temperature  
Mean Temperature 73 °F 72 °F  
Max Temperature 84 °F 81 °F 88 °F (1991)
Min Temperature 61 °F 63 °F 56 °F (1986)
Degree Days  
Heating Degree Days 0 0  
Month to date heating degree days 0 0  
Since 1 July heating degree days 0 0  
Cooling Degree Days 8 7  
Month to date cooling degree days 106 91  
Year to date cooling degree days 106 91  
Growing Degree Days 22 (Base 50)    
Moisture  
Dew Point 64 °F    
Average Humidity 72    
Maximum Humidity 93    
Minimum Humidity 51    
Precipitation  
Precipitation 0.00 in 0.09 in 2.56 in (1959)
Month to date precipitation 0.85 1.27  
Year to date precipitation 0.85 1.27  
Snow  
Snow 0.00 in - - ()
Month to date snowfall 0.0  
Since 1 July snowfall 0.0  
Snow Depth 0.00 in    
Sea Level Pressure  
Sea Level Pressure 29.97 in    
Wind  
Wind Speed 4 mph (ESE)    
Max Wind Speed 13 mph    
Max Gust Speed 15 mph    
Visibility 10 miles    
Events      
T = Trace of Precipitation, MM = Missing Value Source: NWS Daily Summary

Daily Weather History Graph

Daily Weather History Graph

Search for Another Location

Airport or City:

Trip Planner

Search our weather history database for the weather conditions in past years. The results will help you decide how hot, cold, wet, or windy it might be!

Date:

Astronomy

Jan. 13, 2013 Rise Set
Actual Time 7:05 AM HST 6:04 PM HST
Civil Twilight 6:41 AM HST 6:28 PM HST
Nautical Twilight 6:13 AM HST 6:55 PM HST
Astronomical Twilight 5:47 AM HST 7:22 PM HST
Moon 8:32 AM HST (1/13) 8:29 PM HST (1/13)
Length of Visible Light 11h 46m
Length of Day
10h 59m
Waxing Crescent, 6% of the Moon is Illuminated
Jan 13
Waxing Crescent
Jan 18
First Quarter
Jan 26
Full
Feb 3
Last Quarter
Feb 9
New

Hourly Weather History & Observations

Time (HST) Temp. Heat Index Dew Point Humidity Pressure Visibility Wind Dir Wind Speed Gust Speed Precip Events Conditions
12:54 AM 70.0 °F - 66.0 °F 87% 29.97 in 10.0 mi Calm Calm - N/A   Overcast
1:54 AM 66.9 °F - 64.0 °F 90% 29.96 in 10.0 mi SSE 5.8 mph - N/A   Partly Cloudy
2:54 AM 64.0 °F - 62.1 °F 93% 29.96 in 10.0 mi South 4.6 mph - N/A   Clear
3:54 AM 64.9 °F - 62.1 °F 90% 29.96 in 10.0 mi SE 5.8 mph - N/A   Clear
4:54 AM 64.0 °F - 61.0 °F 90% 29.96 in 10.0 mi Calm Calm - N/A   Clear
5:54 AM 62.1 °F - 60.1 °F 93% 29.96 in 10.0 mi SSE 8.1 mph - N/A   Clear
6:54 AM 64.0 °F - 61.0 °F 90% 29.97 in 10.0 mi SE 8.1 mph - N/A   Clear
7:54 AM 64.9 °F - 62.1 °F 90% 29.99 in 10.0 mi Calm Calm - N/A   Clear
8:54 AM 71.1 °F - 63.0 °F 75% 30.00 in 10.0 mi Calm Calm - N/A   Clear
9:54 AM 77.0 °F - 66.0 °F 69% 30.00 in 10.0 mi NNW 3.5 mph - N/A   Clear
10:54 AM 78.1 °F - 64.0 °F 62% 29.98 in 10.0 mi NNW 4.6 mph - N/A   Clear
11:54 AM 82.0 °F 83.0 °F 62.1 °F 51% 29.95 in 10.0 mi Calm Calm - N/A   Partly Cloudy
12:54 PM 82.0 °F 84.1 °F 66.0 °F 58% 29.93 in 10.0 mi North 6.9 mph - N/A   Partly Cloudy
1:54 PM 82.9 °F 84.4 °F 64.0 °F 53% 29.93 in 10.0 mi North 8.1 mph - N/A   Partly Cloudy
2:54 PM 82.9 °F 84.6 °F 64.9 °F 54% 29.94 in 10.0 mi NNE 9.2 mph - N/A   Scattered Clouds
3:54 PM 82.0 °F 84.9 °F 68.0 °F 62% 29.95 in 10.0 mi NE 12.7 mph - N/A   Scattered Clouds
4:54 PM 80.1 °F 81.9 °F 64.9 °F 60% 29.96 in 10.0 mi Calm Calm - N/A   Partly Cloudy
5:54 PM 75.9 °F - 66.9 °F 74% 29.97 in 10.0 mi NNW 4.6 mph - N/A   Partly Cloudy
6:54 PM 75.9 °F - 66.9 °F 74% 29.97 in 10.0 mi Calm Calm - N/A   Clear
7:54 PM 72.0 °F - 66.9 °F 84% 29.98 in 10.0 mi SSW 3.5 mph - N/A   Clear
8:54 PM 71.1 °F - 66.0 °F 84% 29.98 in 10.0 mi SE 5.8 mph - N/A   Clear
9:54 PM 69.1 °F - 64.9 °F 87% 29.99 in 10.0 mi SE 5.8 mph - N/A   Clear
10:54 PM 66.9 °F - 63.0 °F 87% 29.99 in 10.0 mi Calm Calm - N/A   Clear
11:54 PM 66.9 °F - 63.0 °F 87% 29.98 in 10.0 mi SSE 4.6 mph - N/A   Clear